[Date Prev][Date Next][Thread Prev][Thread Next] - [Date Index][Thread Index][Author Index]
2 Line ISS Keps 6-12 - last 3 days - times changes over 2 min's
- Subject: [sarex] 2 Line ISS Keps 6-12 - last 3 days - times changes over 2 min's
- From: "Dave Larsen PhD" <doc@xxxxxxxxxxx>
- Date: Wed, 12 Jun 2002 03:01:43 -0700
ISS
1 25544U 98067A 02163.25000000 .00032866 00000-0 39708-3 0 5541
2 25544 51.6347 77.6922 0006148 183.0277 153.8869 15.60393147203259
----
Via the sarex mailing list at AMSAT.ORG courtesy of AMSAT-NA.
To unsubscribe, send "unsubscribe sarex" to Majordomo@amsat.org
AMSAT Home